IRIDIUM 106 1 41917U 17003A 25352.95317453 -.00000003 00000+0 -82882-5 0 9994 2 41917 86.3993 163.8597 0002304 97.6007 262.5451 14.34217515467374 IRIDIUM 103 1 41918U 17003B 25353.21956753 .00000066 00000+0 16562-4 0 9995 2 41918 86.3988 163.6489 0001708 102.1343 258.0045 14.34214729467439 IRIDIUM 109 1 41919U 17003C 25353.22590708 -.00000036 00000+0 -19983-4 0 9990 2 41919 86.3997 163.7029 0001818 94.6349 265.5054 14.34219697467403 IRIDIUM 102 1 41920U 17003D 25353.19419147 -.00000005 00000+0 -87848-5 0 9997 2 41920 86.3994 163.6436 0001891 88.8114 271.3298 14.34217037467488 IRIDIUM 105 1 41921U 17003E 25353.23470026 .00000238 00000+0 77951-4 0 9995 2 41921 86.3983 132.1186 0001934 95.6529 264.4887 14.34215743469340 IRIDIUM 104 1 41922U 17003F 25352.92780117 -.00000074 00000+0 -33401-4 0 9998 2 41922 86.3993 163.7946 0001510 89.6126 270.5243 14.34217358467438 IRIDIUM 114 1 41923U 17003G 25353.00390635 .00000026 00000+0 22134-5 0 9998 2 41923 86.3988 163.7464 0001826 93.1893 266.9512 14.34216811467429 IRIDIUM 108 1 41924U 17003H 25353.24151092 .00000230 00000+0 75235-4 0 9993 2 41924 86.3978 132.0054 0002094 89.9690 270.1746 14.34218450469316 IRIDIUM 112 1 41925U 17003J 25352.92145885 .00000069 00000+0 17727-4 0 9993 2 41925 86.3985 163.6316 0001859 88.9963 271.1446 14.34217944467432 IRIDIUM 111 1 41926U 17003K 25353.18784963 .00000034 00000+0 50776-5 0 9993 2 41926 86.3986 163.5868 0002011 93.9808 266.1618 14.34217855467458 IRIDIUM 113 1 42803U 17039A 25353.09804552 .00000123 00000+0 36937-4 0 9995 2 42803 86.3967 37.4375 0001992 94.6110 265.5313 14.34218407445371 IRIDIUM 123 1 42804U 17039B 25353.13952586 .00000238 00000+0 77973-4 0 9994 2 42804 86.3964 68.9042 0002181 104.5696 255.5742 14.34218348444143 IRIDIUM 120 1 42805U 17039C 25353.09170431 .00000129 00000+0 38870-4 0 9993 2 42805 86.3958 37.2460 0002503 94.8161 265.3321 14.34218307445368 IRIDIUM 115 1 42806U 17039D 25353.20505425 .00000302 00000+0 83664-4 0 9996 2 42806 86.4493 37.3025 0002618 103.8008 256.3485 14.43278541448304 IRIDIUM 118 1 42807U 17039E 25353.24100730 .00000173 00000+0 54617-4 0 9993 2 42807 86.3965 68.8608 0001975 97.1319 263.0101 14.34216546444155 IRIDIUM 117 1 42808U 17039F 25353.19026436 .00000232 00000+0 75661-4 0 9996 2 42808 86.3964 68.8412 0002119 102.4597 257.6836 14.34219129444173 IRIDIUM 126 1 42809U 17039G 25353.21563633 .00000089 00000+0 24811-4 0 9996 2 42809 86.3964 68.8789 0001964 100.4498 259.6920 14.34217911444157 IRIDIUM 124 1 42810U 17039H 25353.27752491 .00000300 00000+0 83228-4 0 9999 2 42810 86.4488 5.5735 0002372 96.3617 263.7854 14.43281757449167 IRIDIUM 128 1 42811U 17039J 25352.85753185 .00000146 00000+0 45215-4 0 9996 2 42811 86.3970 100.5630 0002392 97.5694 262.5774 14.34218445444137 IRIDIUM 121 1 42812U 17039K 25353.23466387 .00000218 00000+0 70688-4 0 9997 2 42812 86.3964 68.8972 0002223 94.6688 265.4762 14.34218799444030 IRIDIUM 133 1 42955U 17061A 25353.23809196 .00000204 00000+0 65877-4 0 9998 2 42955 86.3972 100.5174 0002131 97.9214 262.2224 14.34220413428984 IRIDIUM 100 1 42956U 17061B 25353.30151244 .00000211 00000+0 68199-4 0 9999 2 42956 86.3968 100.4135 0002072 98.1930 261.9501 14.34217789428995 IRIDIUM 122 1 42957U 17061C 25353.26980198 .00000230 00000+0 75203-4 0 9998 2 42957 86.3969 100.4266 0002000 99.0562 261.0860 14.34216969428992 IRIDIUM 129 1 42958U 17061D 25353.22540137 .00000090 00000+0 25103-4 0 9998 2 42958 86.3972 100.5103 0001753 90.5239 269.6158 14.34217995429006 IRIDIUM 119 1 42959U 17061E 25353.19368983 .00000233 00000+0 76228-4 0 9995 2 42959 86.3970 100.5184 0001841 98.4610 261.6794 14.34218124429016 IRIDIUM 107 1 42960U 17061F 25353.21271627 .00000201 00000+0 64779-4 0 9991 2 42960 86.3972 100.5308 0002151 107.4031 252.7400 14.34218686429020 IRIDIUM 132 1 42961U 17061G 25353.21905979 .00000175 00000+0 55410-4 0 9998 2 42961 86.3971 100.5088 0002087 100.0763 260.0668 14.34217044429029 IRIDIUM 136 1 42962U 17061H 25353.25077186 .00000176 00000+0 55804-4 0 9991 2 42962 86.3971 100.5014 0001952 99.4857 260.6560 14.34218359429043 IRIDIUM 139 1 42963U 17061J 25353.25711577 .00000187 00000+0 59763-4 0 9991 2 42963 86.3974 100.5578 0002125 100.2117 259.9318 14.34218088429057 IRIDIUM 125 1 42964U 17061K 25353.24441733 .00000235 00000+0 77015-4 0 9999 2 42964 86.3973 100.6208 0001822 112.2300 247.9090 14.34214337429066 IRIDIUM 135 1 43070U 17083A 25353.21855472 .00000222 00000+0 72382-4 0 9996 2 43070 86.3962 37.2354 0002162 93.1543 266.9900 14.34216372418356 IRIDIUM 138 1 43071U 17083B 25353.24392495 .00000051 00000+0 11218-4 0 9992 2 43071 86.3975 36.8923 0001778 95.6295 264.5103 14.34217991418347 IRIDIUM 116 1 43072U 17083C 25353.21221558 .00000090 00000+0 24986-4 0 9990 2 43072 86.3958 37.2260 0002599 95.1390 265.0103 14.34217122418376 IRIDIUM 130 1 43073U 17083D 25353.18050001 .00000123 00000+0 37012-4 0 9991 2 43073 86.3971 37.4974 0002503 99.0256 261.1223 14.34219601418313 IRIDIUM 151 1 43074U 17083E 25353.22489828 .00000109 00000+0 31684-4 0 9993 2 43074 86.3961 37.2747 0002251 92.9550 267.1904 14.34218186418340 IRIDIUM 134 1 43075U 17083F 25353.19319023 .00000231 00000+0 75486-4 0 9993 2 43075 86.3964 37.2934 0002306 98.6972 261.4485 14.34215856418302 IRIDIUM 137 1 43076U 17083G 25353.20587244 .00000066 00000+0 16487-4 0 9990 2 43076 86.3965 37.3772 0002627 86.1925 273.9571 14.34217665418372 IRIDIUM 141 1 43077U 17083H 25353.19952761 .00000176 00000+0 55770-4 0 9999 2 43077 86.3959 37.2208 0002055 96.1299 264.0131 14.34218428418370 IRIDIUM 153 1 43078U 17083J 25353.29124188 .00000103 00000+0 29750-4 0 9994 2 43078 86.3968 5.6728 0001893 97.5041 262.6370 14.34218489419496 IRIDIUM 131 1 43079U 17083K 25353.11707370 .00000184 00000+0 58800-4 0 9993 2 43079 86.3966 37.4292 0002095 92.8050 267.3385 14.34218576418299 IRIDIUM 144 1 43249U 18030A 25353.08828199 .00000040 00000+0 72047-5 0 9995 2 43249 86.3967 5.6913 0002377 93.9321 266.2147 14.34217526404329 IRIDIUM 149 1 43250U 18030B 25353.30392816 .00000091 00000+0 25509-4 0 9990 2 43250 86.3966 5.5701 0002242 92.4059 267.7394 14.34218274404373 IRIDIUM 157 1 43251U 18030C 25353.11365262 .00000237 00000+0 77567-4 0 9998 2 43251 86.3965 5.6986 0002172 87.6811 272.4634 14.34217916404320 IRIDIUM 140 1 43252U 18030D 25353.27221688 .00000046 00000+0 92942-5 0 9992 2 43252 86.3965 5.6454 0002305 94.5714 265.5745 14.34217428404401 IRIDIUM 145 1 43253U 18030E 25353.11999363 .00000233 00000+0 76081-4 0 9991 2 43253 86.3965 5.6816 0002573 93.1245 267.0245 14.34216853404318 IRIDIUM 146 1 43254U 18030F 25353.10097149 .00000236 00000+0 77369-4 0 9995 2 43254 86.3966 5.7025 0002407 92.0392 268.1080 14.34214596404322 IRIDIUM 148 1 43255U 18030G 25352.99948542 .00000104 00000+0 29997-4 0 9992 2 43255 86.3966 5.7852 0002234 88.7573 271.3878 14.34217482404342 IRIDIUM 142 1 43256U 18030H 25353.03754094 .00000108 00000+0 31633-4 0 9990 2 43256 86.3961 5.6649 0002600 93.4192 266.7302 14.34218088404318 IRIDIUM 150 1 43257U 18030J 25353.28490117 .00000227 00000+0 73892-4 0 9996 2 43257 86.3967 5.6719 0002358 92.9942 267.1524 14.34216478404378 IRIDIUM 143 1 43258U 18030K 25353.12633186 .00000233 00000+0 76281-4 0 9997 2 43258 86.3970 5.8234 0002476 94.1964 265.9515 14.34222405404289 IRIDIUM 161 1 43478U 18047C 25352.97814219 .00000101 00000+0 24142-4 0 9992 2 43478 86.4508 163.7751 0001856 88.0810 272.0604 14.43280697399145 IRIDIUM 152 1 43479U 18047D 25353.23859029 .00000042 00000+0 79322-5 0 9996 2 43479 86.3983 163.5269 0001831 92.4711 267.6695 14.34217636396696 IRIDIUM 147 1 43480U 18047E 25353.03561268 .00000024 00000+0 16197-5 0 9992 2 43480 86.3984 163.6137 0002036 90.0362 270.1067 14.34231305396666 IRIDIUM 110 1 43481U 18047F 25352.90242926 .00000046 00000+0 93264-5 0 9999 2 43481 86.3988 163.7563 0001530 83.3826 276.7544 14.34217294396633 IRIDIUM 162 1 43482U 18047G 25352.90251302 .00000102 00000+0 24351-4 0 9991 2 43482 86.4508 163.7001 0001898 99.9318 260.2097 14.43278996399120 IRIDIUM 160 1 43569U 18061A 25353.26688176 .00000225 00000+0 73288-4 0 9995 2 43569 86.3978 132.0254 0001875 88.8253 271.3158 14.34217838387581 IRIDIUM 166 1 43570U 18061B 25352.94340852 .00000217 00000+0 70346-4 0 9990 2 43570 86.3979 132.1134 0002140 91.9535 268.1906 14.34218350387569 IRIDIUM 158 1 43571U 18061C 25352.84192729 .00000266 00000+0 88071-4 0 9996 2 43571 86.3979 132.1658 0001884 100.1182 260.0227 14.34216784387517 IRIDIUM 165 1 43572U 18061D 25353.14637299 .00000035 00000+0 52783-5 0 9993 2 43572 86.3979 132.0813 0002097 91.4333 268.7103 14.34216943387589 IRIDIUM 155 1 43573U 18061E 25353.24785311 .00000226 00000+0 73798-4 0 9994 2 43573 86.3979 131.9173 0002109 99.2959 260.8475 14.34218516387562 IRIDIUM 154 1 43574U 18061F 25352.87998323 .00000250 00000+0 82222-4 0 9991 2 43574 86.3981 132.1954 0002047 92.7075 267.4355 14.34218113387567 IRIDIUM 163 1 43575U 18061G 25353.27956617 .00000158 00000+0 49341-4 0 9999 2 43575 86.3978 131.9495 0001890 96.5008 263.6403 14.34217484387599 IRIDIUM 156 1 43576U 18061H 25353.25419649 .00000226 00000+0 73776-4 0 9992 2 43576 86.3978 131.9672 0002170 99.4261 260.7181 14.34217018387585 IRIDIUM 164 1 43577U 18061J 25352.81656653 -.00000557 00000+0 -20597-3 0 9993 2 43577 86.3986 132.1875 0002063 89.4371 270.7062 14.34209716387568 IRIDIUM 159 1 43578U 18061K 25353.27322411 .00000201 00000+0 64823-4 0 9992 2 43578 86.3978 131.9374 0001985 90.3494 269.7929 14.34217843387593 IRIDIUM 180 1 43922U 19002A 25353.13318253 .00000182 00000+0 57818-4 0 9999 2 43922 86.3963 68.8685 0001967 95.0522 265.0898 14.34218384363181 IRIDIUM 176 1 43923U 19002B 25353.24848116 .00000753 00000+0 11550-3 0 9994 2 43923 86.6085 68.7900 0002340 95.9298 264.2186 14.72256870372774 IRIDIUM 168 1 43924U 19002C 25353.19660540 .00000235 00000+0 76996-4 0 9993 2 43924 86.3965 68.9143 0002096 98.2561 261.8872 14.34216010363176 IRIDIUM 173 1 43925U 19002D 25353.25368577 .00000190 00000+0 60913-4 0 9998 2 43925 86.3962 68.7876 0002068 106.9029 253.2393 14.34217052363169 IRIDIUM 169 1 43926U 19002E 25353.24191475 .00000304 00000+0 92839-4 0 9998 2 43926 86.4225 100.4436 0002361 124.2691 235.8731 14.38609847364358 IRIDIUM 172 1 43927U 19002F 25353.24734550 .00000240 00000+0 78731-4 0 9990 2 43927 86.3961 68.7965 0001971 93.8887 266.2534 14.34215981363178 IRIDIUM 175 1 43928U 19002G 25353.31172937 .00000697 00000+0 10657-3 0 9992 2 43928 86.1497 10.7971 0003212 85.7637 274.3947 14.72246720372779 IRIDIUM 171 1 43929U 19002H 25353.08879108 -.00000097 00000+0 -41771-4 0 9999 2 43929 86.3971 69.1496 0002292 98.2163 261.9293 14.34215100363142 IRIDIUM 170 1 43930U 19002J 25353.25466906 .00000750 00000+0 11502-3 0 9990 2 43930 86.6083 68.7910 0002307 91.2249 268.9233 14.72251646372780 IRIDIUM 167 1 43931U 19002K 25353.22197970 .00000214 00000+0 69263-4 0 9993 2 43931 86.3963 68.8282 0002546 102.7047 257.4433 14.34218642363161 IRIDIUM 181 1 56726U 23068S 25353.12736011 .00000320 00000+0 89001-4 0 9990 2 56726 86.4517 132.0583 0002339 83.5430 276.6037 14.43311425136460 IRIDIUM 177 1 56727U 23068T 25353.23192834 .00000937 00000+0 11990-3 0 9997 2 56727 86.1962 54.2467 0002229 85.8522 274.2954 14.80222846139748 IRIDIUM 174 1 56728U 23068U 25353.24230086 .00000491 00000+0 73995-4 0 9990 2 56728 86.6093 68.9257 0002052 88.4699 271.6753 14.72244790139545 IRIDIUM 178 1 56729U 23068V 25353.28857379 .00001077 00000+0 13835-3 0 9992 2 56729 86.6540 100.5629 0002488 93.3371 266.8135 14.80217542139751 IRIDIUM 179 1 56730U 23068W 25353.28322695 .00001053 00000+0 13516-3 0 9992 2 56730 86.6783 109.0083 0002398 89.0200 271.1297 14.80240455139750